Location: Unspecified
(43.4680°N, 87.1740°E)
Time: 20:31:06
(UTC+00:00)

ATLAS 3B R/B - Pass Details

Date: 17 April 2021
Orbit: 1006 x 1189 km, 63.8° (Epoch: 21 April)

Event Time Altitude Azimuth Distance (km) Brightness Sun altitude
Rises 14:15:23 0° 325° (NW) 3,876 6.9 -14.0°
Reaches altitude 10° 14:18:03 10° 330° (NNW) 2,944 6.0 -14.4°
Maximum altitude 14:24:58 57° 48° (NE) 1,307 3.0 -15.4°
Enters shadow 14:29:36 23° 119° (ESE) 2,225 3.7 -16.2°
